Time,TemperatureF,DewpointF,PressureIn,WindDirection,WindDirectionDegrees,WindSpeedMPH,WindSpeedGustMPH,Humidity,HourlyPrecipIn,Conditions,Clouds,dailyrainin,SoftwareType,DateUTC
2013-02-27 00:02:00,34.0,31.0,-100.00,ENE,64,3.0,6.0,90,0.00,,,-99.99,,2013-02-27 05:02:00,
2013-02-27 00:12:00,36.0,30.0,-100.00,ENE,69,4.0,7.0,80,0.00,,,-99.99,,2013-02-27 05:12:00,
2013-02-27 00:22:00,36.0,30.0,-100.00,ENE,73,4.0,8.0,76,0.00,,,-99.99,,2013-02-27 05:22:00,
2013-02-27 00:32:00,37.0,29.0,-100.00,ENE,72,4.0,9.0,74,0.00,,,-99.99,,2013-02-27 05:32:00,
2013-02-27 00:42:00,37.0,29.0,-100.00,ENE,76,5.0,9.0,73,0.00,,,-99.99,,2013-02-27 05:42:00,
2013-02-27 00:52:00,37.0,29.0,-100.00,ENE,78,6.0,11.0,71,-99.99,,,-99.99,,2013-02-27 05:52:00,
2013-02-27 01:02:00,37.0,29.0,-100.00,ENE,75,6.0,11.0,71,0.00,,,-99.99,,2013-02-27 06:02:00,
2013-02-27 01:11:00,38.0,29.0,-100.00,ENE,73,6.0,12.0,71,0.00,,,-99.99,,2013-02-27 06:11:00,
2013-02-27 01:21:00,38.0,29.0,-100.00,ENE,72,6.0,9.0,71,0.00,,,-99.99,,2013-02-27 06:21:00,
2013-02-27 01:33:00,37.0,29.0,-100.00,ENE,73,5.0,9.0,72,0.00,,,-99.99,,2013-02-27 06:33:00,
2013-02-27 01:42:00,38.0,29.0,-100.00,ENE,73,6.0,11.0,71,0.00,,,-99.99,,2013-02-27 06:42:00,
2013-02-27 01:52:00,38.0,29.0,-100.00,ENE,75,6.0,12.0,71,0.00,,,-99.99,,2013-02-27 06:52:00,
2013-02-27 02:01:00,38.0,29.0,-100.00,ENE,75,6.0,12.0,71,0.00,,,-99.99,,2013-02-27 07:01:00,
2013-02-27 02:12:00,38.0,29.0,-100.00,ENE,73,6.0,11.0,72,0.00,,,-99.99,,2013-02-27 07:12:00,
2013-02-27 02:21:00,38.0,29.0,-100.00,ENE,73,7.0,12.0,71,0.00,,,-99.99,,2013-02-27 07:21:00,
2013-02-27 02:32:00,-999.0,-99.9,-100.00,ENE,71,6.0,12.0,-999,-99.99,,,-99.99,,2013-02-27 07:32:00,
2013-02-27 02:42:00,-999.0,-99.9,-100.00,ENE,71,6.0,9.0,-999,-99.99,,,-99.99,,2013-02-27 07:42:00,
2013-02-27 02:51:00,38.0,30.0,-100.00,ENE,72,7.0,16.0,72,0.00,,,-99.99,,2013-02-27 07:51:00,
2013-02-27 03:01:00,38.0,30.0,-100.00,ENE,76,6.0,13.0,73,0.00,,,-99.99,,2013-02-27 08:01:00,
2013-02-27 03:11:00,38.0,30.0,-100.00,ENE,73,6.0,14.0,74,0.00,,,-99.99,,2013-02-27 08:11:00,
2013-02-27 03:21:00,38.0,31.0,-100.00,ENE,73,6.0,12.0,76,0.00,,,-99.99,,2013-02-27 08:21:00,
2013-02-27 03:32:00,38.0,32.0,-100.00,ENE,72,7.0,13.0,80,0.00,,,-99.99,,2013-02-27 08:32:00,
2013-02-27 03:42:00,38.0,33.0,-100.00,ENE,76,6.0,13.0,81,0.00,,,-99.99,,2013-02-27 08:42:00,
2013-02-27 03:52:00,38.0,33.0,-100.00,ENE,73,6.0,10.0,83,0.00,,,-99.99,,2013-02-27 08:52:00,
2013-02-27 04:02:00,38.0,34.0,-100.00,ENE,62,3.0,8.0,86,0.00,,,-99.99,,2013-02-27 09:02:00,
2013-02-27 04:12:00,38.0,34.0,-100.00,ENE,71,4.0,11.0,86,0.00,,,-99.99,,2013-02-27 09:12:00,
2013-02-27 04:22:00,38.0,35.0,-100.00,ENE,69,5.0,11.0,87,0.01,,,-99.99,,2013-02-27 09:22:00,
2013-02-27 04:32:00,38.0,35.0,-100.00,ENE,68,4.0,9.0,89,0.01,,,-99.99,,2013-02-27 09:32:00,
2013-02-27 04:41:00,38.0,35.0,-100.00,ENE,69,4.0,7.0,91,0.00,,,-99.99,,2013-02-27 09:41:00,
2013-02-27 04:51:00,38.0,36.0,-100.00,ENE,64,4.0,7.0,92,0.01,,,-99.99,,2013-02-27 09:51:00,
2013-02-27 05:01:00,38.0,35.0,-100.00,ENE,59,4.0,9.0,92,0.01,,,-99.99,,2013-02-27 10:01:00,
2013-02-27 05:13:00,-999.0,-99.9,-100.00,ENE,66,4.0,15.0,-999,-99.99,,,-99.99,,2013-02-27 10:13:00,
2013-02-27 05:22:00,-999.0,-99.9,-100.00,ENE,69,4.0,11.0,-999,-99.99,,,-99.99,,2013-02-27 10:22:00,
2013-02-27 05:32:00,38.0,36.0,-100.00,ENE,76,3.0,8.0,94,0.01,,,-99.99,,2013-02-27 10:32:00,
2013-02-27 05:42:00,38.0,36.0,-100.00,ENE,72,6.0,11.0,94,0.03,,,-99.99,,2013-02-27 10:42:00,
2013-02-27 05:52:00,38.0,36.0,-100.00,ENE,68,6.0,11.0,96,0.03,,,-99.99,,2013-02-27 10:52:00,
2013-02-27 06:02:00,37.0,36.0,-100.00,ENE,72,7.0,12.0,97,0.01,,,-99.99,,2013-02-27 11:02:00,
2013-02-27 06:12:00,37.0,36.0,-100.00,ENE,78,7.0,13.0,97,0.00,,,-99.99,,2013-02-27 11:12:00,
2013-02-27 06:22:00,37.0,37.0,-100.00,ENE,75,7.0,13.0,97,0.00,,,-99.99,,2013-02-27 11:22:00,
2013-02-27 06:32:00,38.0,37.0,-100.00,ENE,72,7.0,14.0,97,0.00,,,-99.99,,2013-02-27 11:32:00,
2013-02-27 06:42:00,37.0,37.0,-100.00,ENE,73,6.0,12.0,97,0.00,,,-99.99,,2013-02-27 11:42:00,
2013-02-27 06:52:00,-999.0,-99.9,-100.00,ENE,72,7.0,12.0,-999,-99.99,,,-99.99,,2013-02-27 11:52:00,
2013-02-27 07:02:00,-999.0,-99.9,-100.00,ENE,71,6.0,12.0,-999,-99.99,,,-99.99,,2013-02-27 12:02:00,
2013-02-27 07:13:00,38.0,37.0,-100.00,ENE,72,7.0,12.0,96,0.01,,,-99.99,,2013-02-27 12:13:00,
2013-02-27 07:22:00,38.0,37.0,-100.00,ENE,71,7.0,12.0,96,0.01,,,-99.99,,2013-02-27 12:22:00,
2013-02-27 07:33:00,38.0,37.0,-100.00,ENE,73,7.0,12.0,95,0.01,,,-99.99,,2013-02-27 12:33:00,
2013-02-27 07:42:00,39.0,37.0,-100.00,ENE,72,8.0,16.0,94,0.00,,,-99.99,,2013-02-27 12:42:00,
2013-02-27 07:53:00,-999.0,-99.9,-100.00,ENE,76,8.0,14.0,-999,-99.99,,,-99.99,,2013-02-27 12:53:00,
2013-02-27 08:02:00,39.0,37.0,-100.00,ENE,73,9.0,15.0,92,0.03,,,-99.99,,2013-02-27 13:02:00,
2013-02-27 08:12:00,-999.0,-99.9,-100.00,ENE,75,7.0,14.0,-999,-99.99,,,-99.99,,2013-02-27 13:12:00,
2013-02-27 08:22:00,39.0,37.0,-100.00,ENE,75,6.0,12.0,94,0.00,,,-99.99,,2013-02-27 13:22:00,
2013-02-27 08:32:00,40.0,37.0,-100.00,ENE,72,9.0,16.0,91,0.01,,,-99.99,,2013-02-27 13:32:00,
2013-02-27 08:42:00,40.0,37.0,-100.00,ENE,72,9.0,18.0,91,0.01,,,-99.99,,2013-02-27 13:42:00,
2013-02-27 08:52:00,40.0,37.0,-100.00,ENE,73,9.0,15.0,90,-99.99,,,-99.99,,2013-02-27 13:52:00,
2013-02-27 09:02:00,-999.0,-99.9,-100.00,ENE,73,9.0,14.0,-999,-99.99,,,-99.99,,2013-02-27 14:02:00,
2013-02-27 09:12:00,40.0,37.0,-100.00,ENE,72,9.0,16.0,88,0.00,,,-99.99,,2013-02-27 14:12:00,
2013-02-27 09:22:00,40.0,37.0,-100.00,ENE,73,10.0,19.0,87,0.03,,,-99.99,,2013-02-27 14:22:00,
2013-02-27 09:32:00,40.0,37.0,-100.00,ENE,73,10.0,18.0,88,0.03,,,-99.99,,2013-02-27 14:32:00,
2013-02-27 09:42:00,40.0,37.0,-100.00,ENE,72,9.0,22.0,87,0.00,,,-99.99,,2013-02-27 14:42:00,
2013-02-27 09:52:00,40.0,37.0,-100.00,ENE,73,9.0,17.0,87,0.00,,,-99.99,,2013-02-27 14:52:00,
2013-02-27 10:02:00,40.0,37.0,-100.00,ENE,76,9.0,16.0,87,0.00,,,-99.99,,2013-02-27 15:02:00,
2013-02-27 10:12:00,40.0,36.0,-100.00,ENE,73,11.0,22.0,85,0.01,,,-99.99,,2013-02-27 15:12:00,
2013-02-27 10:22:00,40.0,36.0,-100.00,ENE,75,11.0,22.0,85,0.00,,,-99.99,,2013-02-27 15:22:00,
2013-02-27 10:32:00,-999.0,-99.9,-100.00,East,80,12.0,25.0,-999,-99.99,,,-99.99,,2013-02-27 15:32:00,
2013-02-27 10:42:00,41.0,36.0,-100.00,East,80,11.0,25.0,84,0.00,,,-99.99,,2013-02-27 15:42:00,
2013-02-27 10:52:00,41.0,36.0,-100.00,ENE,78,12.0,21.0,83,0.01,,,-99.99,,2013-02-27 15:52:00,
2013-02-27 11:02:00,41.0,36.0,-100.00,ENE,75,12.0,21.0,83,0.03,,,-99.99,,2013-02-27 16:02:00,
2013-02-27 11:12:00,41.0,36.0,-100.00,East,79,11.0,21.0,82,0.01,,,-99.99,,2013-02-27 16:12:00,
2013-02-27 11:22:00,41.0,36.0,-100.00,ENE,75,12.0,19.0,83,0.01,,,-99.99,,2013-02-27 16:22:00,
2013-02-27 11:32:00,41.0,36.0,-100.00,ENE,75,12.0,21.0,84,0.01,,,-99.99,,2013-02-27 16:32:00,
2013-02-27 11:42:00,40.0,37.0,-100.00,ENE,75,12.0,19.0,88,0.01,,,-99.99,,2013-02-27 16:42:00,
2013-02-27 11:52:00,40.0,37.0,-100.00,ENE,76,11.0,20.0,89,0.01,,,-99.99,,2013-02-27 16:52:00,
2013-02-27 12:02:00,40.0,37.0,-100.00,East,82,11.0,21.0,90,0.00,,,-99.99,,2013-02-27 17:02:00,
2013-02-27 12:11:00,40.0,37.0,-100.00,East,86,9.0,19.0,91,0.00,,,-99.99,,2013-02-27 17:11:00,
2013-02-27 12:21:00,40.0,37.0,-100.00,East,79,12.0,19.0,90,0.00,,,-99.99,,2013-02-27 17:21:00,
2013-02-27 12:32:00,40.0,38.0,-100.00,ENE,75,12.0,22.0,92,0.01,,,-99.99,,2013-02-27 17:32:00,
2013-02-27 12:42:00,39.0,37.0,-100.00,ENE,78,12.0,24.0,92,0.01,,,-99.99,,2013-02-27 17:42:00,
2013-02-27 12:52:00,39.0,37.0,-100.00,East,82,12.0,26.0,93,0.01,,,-99.99,,2013-02-27 17:52:00,
2013-02-27 13:02:00,39.0,37.0,-100.00,East,79,12.0,22.0,95,0.03,,,-99.99,,2013-02-27 18:02:00,
2013-02-27 13:11:00,-999.0,-99.9,-100.00,ENE,75,12.0,26.0,-999,-99.99,,,-99.99,,2013-02-27 18:11:00,
2013-02-27 13:22:00,-999.0,-99.9,-100.00,ENE,76,13.0,24.0,-999,-99.99,,,-99.99,,2013-02-27 18:22:00,
2013-02-27 13:32:00,37.0,36.0,-100.00,ENE,76,16.0,27.0,96,0.07,,,-99.99,,2013-02-27 18:32:00,
2013-02-27 13:42:00,36.0,36.0,-100.00,ENE,75,12.0,26.0,100,0.03,,,-99.99,,2013-02-27 18:42:00,
2013-02-27 13:51:00,36.0,36.0,-100.00,ENE,78,12.0,20.0,100,0.06,,,-99.99,,2013-02-27 18:51:00,
2013-02-27 14:01:00,36.0,36.0,-100.00,ENE,75,11.0,22.0,100,0.06,,,-99.99,,2013-02-27 19:01:00,
2013-02-27 14:12:00,35.0,-99.9,-100.00,ENE,72,14.0,24.0,-999,0.03,,,-99.99,,2013-02-27 19:12:00,
2013-02-27 14:22:00,35.0,-99.9,-100.00,ENE,72,13.0,24.0,-999,0.03,,,-99.99,,2013-02-27 19:22:00,
2013-02-27 14:33:00,35.0,-99.9,-100.00,East,79,11.0,18.0,-999,0.04,,,-99.99,,2013-02-27 19:33:00,
2013-02-27 14:42:00,35.0,-99.9,-100.00,ENE,75,10.0,20.0,-999,0.04,,,-99.99,,2013-02-27 19:42:00,
2013-02-27 14:52:00,34.0,-99.9,-100.00,ENE,75,11.0,17.0,-999,0.04,,,-99.99,,2013-02-27 19:52:00,
2013-02-27 15:02:00,34.0,-99.9,-100.00,ENE,72,9.0,16.0,-999,0.00,,,-99.99,,2013-02-27 20:02:00,
2013-02-27 15:12:00,34.0,-99.9,-100.00,ENE,68,9.0,17.0,-999,0.01,,,-99.99,,2013-02-27 20:12:00,
2013-02-27 15:22:00,34.0,-99.9,-100.00,ENE,66,6.0,12.0,-999,0.03,,,-99.99,,2013-02-27 20:22:00,
2013-02-27 15:32:00,34.0,-99.9,-100.00,ENE,76,8.0,17.0,-999,0.04,,,-99.99,,2013-02-27 20:32:00,
2013-02-27 15:42:00,34.0,-99.9,-100.00,ENE,73,9.0,19.0,-999,0.03,,,-99.99,,2013-02-27 20:42:00,
2013-02-27 15:53:00,34.0,-99.9,-100.00,ENE,71,11.0,21.0,-999,0.04,,,-99.99,,2013-02-27 20:53:00,
2013-02-27 16:02:00,34.0,-99.9,-100.00,ENE,71,8.0,16.0,-999,-99.99,,,-99.99,,2013-02-27 21:02:00,
2013-02-27 16:12:00,34.0,-99.9,-100.00,ENE,73,8.0,16.0,-999,0.03,,,-99.99,,2013-02-27 21:12:00,
2013-02-27 16:22:00,34.0,-99.9,-100.00,ENE,68,8.0,16.0,-999,0.01,,,-99.99,,2013-02-27 21:22:00,
2013-02-27 16:32:00,34.0,-99.9,-100.00,ENE,65,6.0,14.0,-999,0.01,,,-99.99,,2013-02-27 21:32:00,
2013-02-27 16:42:00,34.0,-99.9,-100.00,ENE,66,7.0,19.0,-999,0.01,,,-99.99,,2013-02-27 21:42:00,
2013-02-27 16:52:00,-999.0,-99.9,-100.00,ENE,69,9.0,17.0,-999,-99.99,,,-99.99,,2013-02-27 21:52:00,
2013-02-27 17:02:00,34.0,-99.9,-100.00,ENE,69,9.0,17.0,-999,0.00,,,-99.99,,2013-02-27 22:02:00,
2013-02-27 17:12:00,34.0,-99.9,-100.00,ENE,66,6.0,12.0,-999,0.01,,,-99.99,,2013-02-27 22:12:00,
2013-02-27 17:22:00,33.0,-99.9,-100.00,ENE,65,6.0,17.0,-999,0.01,,,-99.99,,2013-02-27 22:22:00,
2013-02-27 17:32:00,33.0,-99.9,-100.00,ENE,58,5.0,14.0,-999,0.01,,,-99.99,,2013-02-27 22:32:00,
2013-02-27 17:42:00,-999.0,-99.9,-100.00,NE,51,5.0,13.0,-999,-99.99,,,-99.99,,2013-02-27 22:42:00,
2013-02-27 17:52:00,33.0,-99.9,-100.00,NE,48,5.0,16.0,-999,0.00,,,-99.99,,2013-02-27 22:52:00,
2013-02-27 18:02:00,33.0,-99.9,-100.00,NE,49,5.0,13.0,-999,0.01,,,-99.99,,2013-02-27 23:02:00,
2013-02-27 18:12:00,-999.0,-99.9,-100.00,NE,49,6.0,17.0,-999,-99.99,,,-99.99,,2013-02-27 23:12:00,
2013-02-27 18:22:00,33.0,-99.9,-100.00,NE,45,6.0,17.0,-999,0.03,,,-99.99,,2013-02-27 23:22:00,
2013-02-27 18:32:00,-999.0,-99.9,-100.00,NE,48,7.0,16.0,-999,-99.99,,,-99.99,,2013-02-27 23:32:00,
2013-02-27 18:42:00,33.0,-99.9,-100.00,NE,45,6.0,12.0,-999,0.01,,,-99.99,,2013-02-27 23:42:00,
2013-02-27 18:53:00,33.0,-99.9,-100.00,NE,38,6.0,12.0,-999,0.06,,,-99.99,,2013-02-27 23:53:00,
2013-02-27 19:02:00,33.0,-99.9,-100.00,NE,49,5.0,16.0,-999,0.00,,,-99.99,,2013-02-28 00:02:00,
2013-02-27 19:13:00,33.0,-99.9,-100.00,NE,52,6.0,16.0,-999,0.00,,,-99.99,,2013-02-28 00:13:00,
2013-02-27 19:22:00,33.0,-99.9,-100.00,NE,49,6.0,15.0,-999,0.00,,,-99.99,,2013-02-28 00:22:00,
2013-02-27 19:32:00,-999.0,-99.9,-100.00,NE,35,5.0,16.0,-999,-99.99,,,-99.99,,2013-02-28 00:32:00,
2013-02-27 19:42:00,34.0,-99.9,-100.00,NNE,24,6.0,16.0,-999,0.00,,,-99.99,,2013-02-28 00:42:00,
2013-02-27 19:52:00,34.0,-99.9,-100.00,NE,37,4.0,13.0,-999,0.01,,,-99.99,,2013-02-28 00:52:00,
2013-02-27 20:01:00,33.0,-99.9,-100.00,NNE,27,4.0,12.0,-999,0.03,,,-99.99,,2013-02-28 01:01:00,
2013-02-27 20:12:00,-999.0,-99.9,-100.00,NNE,31,5.0,16.0,-999,-99.99,,,-99.99,,2013-02-28 01:12:00,
2013-02-27 20:22:00,33.0,-99.9,-100.00,NNE,24,4.0,16.0,-999,0.00,,,-99.99,,2013-02-28 01:22:00,
2013-02-27 20:32:00,34.0,-99.9,-100.00,NNE,21,4.0,11.0,-999,0.01,,,-99.99,,2013-02-28 01:32:00,
2013-02-27 20:42:00,34.0,-99.9,-100.00,North,7,4.0,11.0,-999,-99.99,,,-99.99,,2013-02-28 01:42:00,
2013-02-27 20:52:00,34.0,-99.9,-100.00,North,10,4.0,12.0,-999,0.00,,,-99.99,,2013-02-28 01:52:00,
2013-02-27 21:02:00,34.0,-99.9,-100.00,North,8,6.0,12.0,-999,0.00,,,-99.99,,2013-02-28 02:02:00,
2013-02-27 21:11:00,34.0,-99.9,-100.00,North,4,5.0,12.0,-999,0.01,,,-99.99,,2013-02-28 02:11:00,
2013-02-27 21:22:00,-999.0,-99.9,-100.00,North,0,4.0,14.0,-999,-99.99,,,-99.99,,2013-02-28 02:22:00,
2013-02-27 21:32:00,35.0,-99.9,-100.00,North,4,5.0,12.0,-999,0.01,,,-99.99,,2013-02-28 02:32:00,
2013-02-27 21:42:00,35.0,-99.9,-100.00,North,4,5.0,12.0,-999,0.01,,,-99.99,,2013-02-28 02:42:00,
2013-02-27 21:52:00,35.0,-99.9,-100.00,North,4,5.0,12.0,-999,0.01,,,-99.99,,2013-02-28 02:52:00,
2013-02-27 22:02:00,37.0,-99.9,-100.00,NNE,24,6.0,14.0,-999,0.00,,,-99.99,,2013-02-28 03:02:00,
2013-02-27 22:11:00,37.0,-99.9,-100.00,North,7,4.0,11.0,-999,0.01,,,-99.99,,2013-02-28 03:11:00,
2013-02-27 22:22:00,-999.0,-99.9,-100.00,NNE,18,4.0,12.0,-999,-99.99,,,-99.99,,2013-02-28 03:22:00,
2013-02-27 22:32:00,37.0,-99.9,-100.00,North,0,4.0,12.0,-999,0.01,,,-99.99,,2013-02-28 03:32:00,
2013-02-27 22:42:00,37.0,-99.9,-100.00,North,354,4.0,13.0,-999,0.01,,,-99.99,,2013-02-28 03:42:00,
2013-02-27 22:52:00,-999.0,-99.9,-100.00,North,356,4.0,12.0,-999,-99.99,,,-99.99,,2013-02-28 03:52:00,
2013-02-27 23:02:00,37.0,-99.9,-100.00,North,354,6.0,14.0,-999,0.01,,,-99.99,,2013-02-28 04:02:00,
2013-02-27 23:11:00,37.0,-99.9,-100.00,North,349,5.0,10.0,-999,0.01,,,-99.99,,2013-02-28 04:11:00,
2013-02-27 23:22:00,37.0,-99.9,-100.00,NNW,343,5.0,10.0,-999,0.01,,,-99.99,,2013-02-28 04:22:00,
2013-02-27 23:32:00,37.0,-99.9,-100.00,NNW,340,7.0,16.0,-999,0.01,,,-99.99,,2013-02-28 04:32:00,
2013-02-27 23:42:00,37.0,-99.9,-100.00,NNW,340,9.0,16.0,-999,0.00,,,-99.99,,2013-02-28 04:42:00,
2013-02-27 23:52:00,-999.0,-99.9,-100.00,NNW,332,10.0,16.0,-999,-99.99,,,-99.99,,2013-02-28 04:52:00,